DW0499 Weather Reports


time (UTC)temp
F
wind
direction
speed
knots
gust
knots
rain 1hr
in
rain 24hr
in
rain mn
in
humidity
%
barometer
mb
20260507203100 51 0 0.0 1.7 0.00 0.09 0.09 40 1015.2
20260507201600 51 360 1.7 7.0 0.00 0.09 0.09 42 1015.0
20260507200108 51 360 1.7 5.2 0.00 0.09 0.09 44 1014.9
20260507194557 51 360 0.9 5.2 0.00 0.10 0.09 47 1014.8
20260507193056 52 360 1.7 4.3 0.00 0.10 0.09 49 1014.8
20260507191558 52 360 1.7 5.2 0.00 0.10 0.09 51 1014.6
20260507190057 52 360 0.9 4.3 0.00 0.10 0.09 53 1014.6
20260507184605 52 360 0.9 3.5 0.00 0.10 0.09 54 1014.7
20260507183055 53 360 0.9 4.3 0.00 0.10 0.09 53 1014.4
20260507181602 53 360 2.6 5.2 0.00 0.10 0.09 55 1014.4
20260507180057 54 360 0.0 2.6 0.00 0.10 0.09 55 1014.3
20260507174602 55 360 0.9 3.5 0.00 0.10 0.09 55 1014.3
20260507173056 55 360 1.7 7.0 0.00 0.10 0.09 58 1014.2
20260507171603 56 360 1.7 7.8 0.00 0.09 0.08 57 1014.2
20260507170059 56 360 1.7 5.2 0.00 0.09 0.08 57 1014.2
20260507164557 56 360 0.9 4.3 0.00 0.11 0.08 57 1014.2
20260507163059 56 360 0.0 3.5 0.00 0.11 0.08 56 1014.3
20260507161556 56 0 0.9 4.3 0.00 0.11 0.08 55 1014.3
20260507160057 56 360 0.9 3.5 0.00 0.11 0.08 54 1014.2
20260507154602 56 0 0.9 5.2 0.00 0.11 0.08 53 1014.3
20260507153101 56 360 0.0 4.3 0.00 0.11 0.08 51 1014.2
20260507151556 57 360 1.7 5.2 0.00 0.11 0.08 55 1014.2
20260507150058 57 360 0.9 5.2 0.00 0.11 0.08 58 1014.2
20260507144556 57 360 3.5 10.4 0.00 0.13 0.08 58 1014.3
20260507143055 57 360 1.7 5.2 0.00 0.13 0.08 58 1014.2
20260507141557 57 360 0.9 5.2 0.00 0.13 0.08 58 1014.2
20260507140103 57 360 2.6 8.7 0.00 0.13 0.08 57 1014.3
20260507134600 57 360 0.0 3.5 0.00 0.14 0.08 58 1014.5
20260507133107 57 360 1.7 7.8 0.00 0.14 0.08 58 1014.6
20260507131604 56 360 0.9 7.0 0.00 0.14 0.08 58 1014.7
20260507130109 56 360 2.6 7.8 0.00 0.14 0.08 58 1014.7
20260507124558 57 360 3.5 8.7 0.00 0.14 0.07 58 1014.6
20260507123057 59 360 1.7 7.8 0.00 0.14 0.07 57 1014.6
20260507121608 59 360 1.7 7.0 0.00 0.14 0.07 58 1014.6
20260507114613 58 360 0.0 3.5 0.00 0.15 0.07 58 1014.6
20260507113101 57 360 0.9 4.3 0.00 0.15 0.07 58 1014.6
20260507111606 55 360 0.9 4.3 0.00 0.15 0.07 57 1014.9
20260507110057 55 360 1.7 7.0 0.00 0.15 0.07 56 1015.0
20260507104556 54 360 2.6 7.8 0.00 0.18 0.07 56 1015.0
20260507103056 56 360 0.9 4.3 0.00 0.18 0.07 57 1015.1
20260507101604 56 360 2.6 5.2 0.01 0.18 0.07 55 1015.0
20260507100058 55 360 1.7 5.2 0.00 0.18 0.06 55 1015.1
20260507094557 55 360 1.7 4.3 0.00 0.24 0.06 54 1015.1
20260507093059 54 0 0.9 4.3 0.00 0.24 0.06 48 1015.1
20260507091559 52 0 0.9 1.7 0.00 0.23 0.05 41 1015.1
20260507090058 52 360 0.9 7.0 0.00 0.23 0.05 44 1015.1
20260507084557 52 0 0.9 7.0 0.00 0.29 0.05 40 1015.0
20260507083056 52 360 1.7 5.2 0.00 0.29 0.05 36 1015.0
20260507081602 51 360 0.9 4.3 0.00 0.29 0.05 34 1015.1
20260507080100 50 360 2.6 5.2 0.00 0.29 0.05 29 1014.9
20260507074608 50 360 0.0 2.6 0.00 0.29 0.04 25 1014.9
20260507073055 49 360 0.9 3.5 0.00 0.29 0.04 25 1014.9
20260507071556 49 0 0.0 1.7 0.00 0.29 0.04 25 1014.9
20260507070058 48 0 0.0 3.5 0.00 0.29 0.04 25 1014.7
20260507064559 47 0 2.6 5.2 0.00 0.28 0.03 25 1014.6
20260507063058 47 360 2.6 4.3 0.00 0.28 0.03 23 1014.5
20260507061606 47 360 2.6 5.2 0.00 0.28 0.03 23 1014.5
20260507060057 47 360 1.7 4.3 0.00 0.28 0.03 24 1014.4
20260507054638 46 360 1.7 4.3 0.00 0.28 0.03 23 1014.3
20260507053100 46 360 1.7 4.3 0.00 0.28 0.03 24 1014.3
20260507051556 46 360 0.9 3.5 0.00 0.28 0.03 23 1014.1
20260507050058 45 360 1.7 3.5 0.01 0.28 0.03 23 1013.9
20260507044601 45 0 0.0 4.3 0.00 0.27 0.03 24 1013.7
20260507043055 45 360 2.6 5.2 0.00 0.27 0.03 24 1013.6
20260507041602 45 360 1.7 4.3 0.00 0.27 0.03 25 1013.6
20260507040058 45 360 3.5 5.2 0.00 0.26 0.02 24 1013.5
20260507034600 45 360 3.5 4.3 0.00 0.26 0.02 23 1013.4
20260507033101 45 360 1.7 3.5 0.00 0.26 0.02 23 1013.5
20260507031605 45 0 0.0 5.2 0.00 0.26 0.02 23 1013.3
20260507030059 45 360 4.3 7.0 0.00 0.26 0.02 23 1013.3
20260507024555 45 360 2.6 5.2 0.00 0.26 0.02 23 1013.3
20260507023105 45 360 2.6 5.2 0.01 0.26 0.02 23 1013.3
20260507021555 45 360 1.7 3.5 0.00 0.25 0.01 22 1013.3
20260507020057 45 0 0.0 4.3 0.00 0.25 0.01 23 1013.3
20260507014604 45 360 2.6 7.0 0.00 0.25 0.01 22 1013.2
20260507013056 45 360 2.6 5.2 0.00 0.25 0.00 22 1013.2
20260507011555 45 360 2.6 5.2 0.00 0.25 0.00 22 1013.2
20260507010107 45 360 1.7 3.5 0.00 0.25 0.00 22 1013.3
20260507004557 45 360 1.7 4.3 0.00 0.25 0.00 22 1013.3
20260507003058 45 360 0.0 2.6 0.00 0.25 0.00 22 1013.2
20260507001605 45 360 3.5 5.2 0.00 0.25 0.00 22 1013.1
20260507000105 45 360 4.3 9.6 0.00 0.25 0.00 22 1013.1
20260506234603 45 360 5.2 8.7 0.00 0.25 0.00 22 1013.1
20260506233129 45 360 0.0 0.0 0.00 0.25 0.00 22 1013.2
20260506231605 45 0 0.0 0.0 0.00 0.25 0.00 22 1012.9
20260506230057 45 0 0.0 0.9 0.00 0.25 0.00 22 1013.2
20260506224556 45 0 0.0 4.3 0.00 0.25 0.00 22 1013.1
20260506223103 46 360 2.6 4.3 0.00 0.25 0.00 22 1013.2
20260506221559 46 360 2.6 5.2 0.00 0.25 0.00 22 1013.1
20260506220059 46 0 0.0 0.0 0.00 0.25 0.00 23 1013.0
20260506214557 46 0 0.0 3.5 0.00 0.25 0.25 24 1012.7
20260506213113 46 0 0.9 2.6 0.00 0.25 0.25 25 1012.8
20260506211558 45 360 0.9 3.5 0.00 0.25 0.25 25 1012.7
20260506210059 45 360 0.9 2.6 0.00 0.25 0.25 27 1012.5
20260506204558 45 360 1.7 3.5 0.00 0.25 0.25 28 1012.6